Regional Weather Roundup
Issued by NWS Cleveland, OH

Home | Current Version | Previous Version | Graphics & Text | Print | Product List | Glossary On
Versions: 1 2 3 4 5 6 7 8 9 10 11 12 13 14 15 16 17 18 19 20 21 22 23 24 25 26 27 28 29 30 31 32 33 34 35 36 37 38 39 40 41 42 43 44 45 46 47 48 49 50
000
ASUS41 KCLE 030010
RWRCLE
OHIO REGIONAL WEATHER ROUNDUP
NATIONAL WEATHER SERVICE CLEVELAND, OH
700 PM EST MON MAR 02 2015

NOTE: "FAIR" INDICATES FEW OR NO CLOUDS BELOW 12,000 FEET WITH NO
SIGNIFICANT WEATHER AND/OR OBSTRUCTIONS TO VISIBILITY.

OHZ001>008-015>018-024>027-034-035-043-044-030100-
   NORTHWEST OHIO

CITY           SKY/WX    TMP DP  RH WIND       PRES   REMARKS
DEFIANCE       PTCLDY    23  14  68 S5        30.43F WCI  17
FINDLAY        MOCLDY    21  13  71 S3        30.43S
TOLEDO EXPRESS PTCLDY    23  13  65 SW3       30.42F
TOLEDO EXEC    PTCLDY    20  13  74 S5        30.44F WCI  13
LIMA           PTCLDY    21  11  65 S3        30.42F
$$

OHZ009>014-019>023-028>033-038-089-030100-
   NORTHEAST OHIO

CITY           SKY/WX    TMP DP  RH WIND       PRES   REMARKS
CLE-HOPKINS    MOCLDY    23  10  57 SW6       30.47R WCI  16
CLE-LAKEFRONT  CLEAR     18  10  71 SW7       30.45R WCI   9
CUY CO. ARPT   PTCLDY    21  14  73 W7        30.44S WCI  13
LORAIN-ELYRIA  PTCLDY    17   8  67 W6        30.44S WCI   9
ASHTABULA      CLEAR     21   8  57 NW3       30.43S
AKRON-CANTON   PTCLDY    19   6  57 SW3       30.42R
WOOSTER        PTCLDY    17   8  67 W3        30.43R
MANSFIELD      MOCLDY    20  10  65 CALM      30.42R
YOUNGSTOWN     PTCLDY    21   7  54 N7        30.40S WCI  12
$$

OHZ042-051>053-060>062-070>072-077>081-030100-
  SOUTHWEST OHIO

CITY           SKY/WX    TMP DP  RH WIND       PRES   REMARKS
CINC-COVINGTON MOCLDY    32  14  47 NE7       30.42S WCI  26
CINC-LUNKEN    MOCLDY    30  16  56 E3        30.46R
HAMILTON       MOCLDY    29  14  53 N7        30.46S WCI  22
DAYTON         MOCLDY    23  13  65 CALM      30.44R
WRIGHT-PAT AFB MOCLDY    26  13  58 NW2       30.44S
DAYTON GENERAL PTCLDY    28  13  53 E3        30.42S
WILMINGTON     PTCLDY    22  13  68 CALM      30.43S
$$

OHZ036-037-039>041-045>050-054>059-063>069-073>076-082>088-030100-
  CENTRAL AND SOUTHEAST OHIO

CITY           SKY/WX    TMP DP  RH WIND       PRES   REMARKS
COLUMBUS       MOCLDY    26   9  48 N3        30.44R
OSU AIRPORT    CLEAR     23   9  55 N3        30.43S
BOLTON FIELD   CLEAR    N/A N/A N/A NW5       30.43S
RICKENBACK AFB CLEAR     24  15  69 SW3       30.43S
NEWARK         CLEAR     23  10  57 CALM      30.43R
MARION         PTCLDY    18  10  71 CALM      30.43S
LANCASTER      CLEAR     24  16  71 W3        30.44R
ZANESVILLE     CLEAR     27  10  49 NW3       30.43R
NEW PHILLY     PTCLDY    28   9  44 N5        30.45R WCI  23
$$


USA.gov is the U.S. government's official web portal to all federal, state and local government web resources and services.